| time (UTC) | temp C | wind direction | speed KPH | gust KPH | rain 1hr cm | rain 24hr cm | rain mn cm | humidity % | barometer mb |
| 20260510231031 | 19 | 168 | 11.3 | 27.4 | 0.00 | 0.00 | 0.00 | 32 | 1023.3 |
| 20260510230531 | 18 | 124 | 11.3 | 25.7 | 0.00 | 0.00 | 0.00 | 33 | 1023.1 |
| 20260510230028 | 18 | 105 | 9.7 | 20.9 | 0.00 | 0.00 | 0.00 | 34 | 1023.1 |
| 20260510225525 | 19 | 163 | 11.3 | 24.1 | 0.00 | 0.00 | 0.00 | 33 | 1023.1 |
| 20260510225021 | 19 | 152 | 14.5 | 35.4 | 0.00 | 0.00 | 0.00 | 33 | 1023.0 |
| 20260510224517 | 20 | 165 | 11.3 | 27.4 | 0.00 | 0.00 | 0.00 | 33 | 1023.0 |
| 20260510224014 | 20 | 153 | 14.5 | 32.2 | 0.00 | 0.00 | 0.00 | 32 | 1022.9 |
| 20260510223512 | 20 | 120 | 12.9 | 20.9 | 0.00 | 0.00 | 0.00 | 30 | 1022.9 |
| 20260510223009 | 20 | 138 | 14.5 | 25.7 | 0.00 | 0.00 | 0.00 | 31 | 1023.0 |
| 20260510222506 | 20 | 95 | 8.0 | 20.9 | 0.00 | 0.00 | 0.00 | 33 | 1022.6 |
| 20260510222002 | 20 | 157 | 9.7 | 17.7 | 0.00 | 0.00 | 0.00 | 31 | 1022.9 |
| 20260510221458 | 20 | 224 | 11.3 | 17.7 | 0.00 | 0.00 | 0.00 | 32 | 1023.0 |
| 20260510220954 | 19 | 122 | 11.3 | 32.2 | 0.00 | 0.00 | 0.00 | 33 | 1023.0 |
| 20260510220450 | 19 | 118 | 14.5 | 27.4 | 0.00 | 0.00 | 0.00 | 34 | 1023.0 |
| 20260510215946 | 18 | 175 | 8.0 | 17.7 | 0.00 | 0.00 | 0.00 | 34 | 1023.3 |
| 20260510215444 | 20 | 119 | 9.7 | 17.7 | 0.00 | 0.00 | 0.00 | 33 | 1023.1 |
| 20260510214942 | 19 | 141 | 9.7 | 37.0 | 0.00 | 0.00 | 0.00 | 33 | 1022.9 |
| 20260510214438 | 20 | 98 | 14.5 | 24.1 | 0.00 | 0.00 | 0.00 | 33 | 1023.3 |
| 20260510213935 | 20 | 189 | 11.3 | 20.9 | 0.00 | 0.00 | 0.00 | 30 | 1023.1 |
| 20260510213432 | 20 | 111 | 8.0 | 16.1 | 0.00 | 0.00 | 0.00 | 31 | 1023.4 |
| 20260510212928 | 21 | 162 | 11.3 | 24.1 | 0.00 | 0.00 | 0.00 | 31 | 1023.4 |
| 20260510212426 | 21 | 72 | 8.0 | 20.9 | 0.00 | 0.00 | 0.00 | 30 | 1023.3 |
| 20260510211922 | 20 | 113 | 8.0 | 20.9 | 0.00 | 0.00 | 0.00 | 31 | 1023.4 |
| 20260510211419 | 20 | 154 | 9.7 | 17.7 | 0.00 | 0.00 | 0.00 | 32 | 1023.0 |
| 20260510210914 | 20 | 197 | 12.9 | 22.5 | 0.00 | 0.00 | 0.00 | 31 | 1023.0 |
| 20260510210409 | 20 | 140 | 16.1 | 20.9 | 0.00 | 0.00 | 0.00 | 31 | 1023.1 |
| 20260510205908 | 19 | 210 | 11.3 | 16.1 | 0.00 | 0.00 | 0.00 | 32 | 1023.3 |
| 20260510205403 | 18 | 131 | 17.7 | 27.4 | 0.00 | 0.00 | 0.00 | 33 | 1023.3 |
| 20260510204859 | 18 | 168 | 11.3 | 17.7 | 0.00 | 0.00 | 0.00 | 33 | 1023.4 |
| 20260510204356 | 19 | 158 | 4.8 | 20.9 | 0.00 | 0.00 | 0.00 | 32 | 1023.0 |
| 20260510203853 | 20 | 122 | 6.4 | 16.1 | 0.00 | 0.00 | 0.00 | 32 | 1023.1 |
| 20260510203351 | 20 | 159 | 9.7 | 20.9 | 0.00 | 0.00 | 0.00 | 31 | 1023.0 |
| 20260510202845 | 20 | 106 | 4.8 | 14.5 | 0.00 | 0.00 | 0.00 | 30 | 1023.0 |
| 20260510202341 | 20 | 92 | 4.8 | 25.7 | 0.00 | 0.00 | 0.00 | 29 | 1022.9 |
| 20260510201838 | 20 | 142 | 6.4 | 17.7 | 0.00 | 0.00 | 0.00 | 29 | 1023.3 |
| 20260510201335 | 21 | 163 | 14.5 | 20.9 | 0.00 | 0.00 | 0.00 | 28 | 1023.0 |
| 20260510200832 | 21 | 126 | 4.8 | 14.5 | 0.00 | 0.00 | 0.00 | 27 | 1022.9 |
| 20260510200330 | 22 | 142 | 8.0 | 16.1 | 0.00 | 0.00 | 0.00 | 26 | 1022.5 |
| 20260510195825 | 23 | 193 | 11.3 | 16.1 | 0.00 | 0.00 | 0.00 | 25 | 1022.5 |
| 20260510195322 | 23 | 153 | 4.8 | 11.3 | 0.00 | 0.00 | 0.00 | 24 | 1022.5 |
| 20260510194817 | 22 | 151 | 8.0 | 17.7 | 0.00 | 0.00 | 0.00 | 25 | 1022.8 |
| 20260510194314 | 22 | 205 | 8.0 | 12.9 | 0.00 | 0.00 | 0.00 | 23 | 1022.5 |
| 20260510193809 | 21 | 119 | 8.0 | 9.7 | 0.00 | 0.00 | 0.00 | 26 | 1022.4 |
| 20260510193304 | 21 | 105 | 6.4 | 11.3 | 0.00 | 0.00 | 0.00 | 26 | 1022.6 |
| 20260510192801 | 21 | 132 | 8.0 | 22.5 | 0.00 | 0.00 | 0.00 | 27 | 1022.6 |
| 20260510192255 | 20 | 149 | 8.0 | 11.3 | 0.00 | 0.00 | 0.00 | 28 | 1022.8 |
| 20260510191752 | 20 | 105 | 11.3 | 14.5 | 0.00 | 0.00 | 0.00 | 27 | 1022.4 |
| 20260510191248 | 20 | 181 | 11.3 | 14.5 | 0.00 | 0.00 | 0.00 | 27 | 1022.5 |
| 20260510190747 | 20 | 92 | 3.2 | 14.5 | 0.00 | 0.00 | 0.00 | 28 | 1022.6 |
| 20260510190243 | 21 | 135 | 6.4 | 17.7 | 0.00 | 0.00 | 0.00 | 27 | 1022.9 |
| 20260510185739 | 21 | 178 | 4.8 | 9.7 | 0.00 | 0.00 | 0.00 | 26 | 1022.5 |
| 20260510185238 | 21 | 138 | 3.2 | 8.0 | 0.00 | 0.00 | 0.00 | 26 | 1022.8 |
| 20260510184734 | 20 | 134 | 9.7 | 14.5 | 0.00 | 0.00 | 0.00 | 28 | 1022.8 |
| 20260510184231 | 20 | 132 | 6.4 | 9.7 | 0.00 | 0.00 | 0.00 | 28 | 1022.9 |
| 20260510183726 | 20 | 62 | 1.6 | 9.7 | 0.00 | 0.00 | 0.00 | 28 | 1022.9 |
| 20260510183221 | 20 | 71 | 3.2 | 4.8 | 0.00 | 0.00 | 0.00 | 29 | 1023.0 |
| 20260510182717 | 19 | 146 | 3.2 | 8.0 | 0.00 | 0.00 | 0.00 | 30 | 1023.1 |
| 20260510182213 | 20 | 65 | 4.8 | 12.9 | 0.00 | 0.00 | 0.00 | 29 | 1023.0 |
| 20260510181710 | 20 | 172 | 3.2 | 4.8 | 0.00 | 0.00 | 0.00 | 29 | 1023.0 |
| 20260510181207 | 20 | 78 | 1.6 | 4.8 | 0.00 | 0.00 | 0.00 | 29 | 1023.3 |
| 20260510180703 | 20 | 157 | 4.8 | 12.9 | 0.00 | 0.00 | 0.00 | 28 | 1023.1 |
| 20260510180201 | 20 | 94 | 3.2 | 8.0 | 0.00 | 0.00 | 0.00 | 28 | 1022.8 |
| 20260510175657 | 21 | 57 | 3.2 | 8.0 | 0.00 | 0.00 | 0.00 | 28 | 1023.0 |
| 20260510175153 | 20 | 51 | 6.4 | 14.5 | 0.00 | 0.00 | 0.00 | 28 | 1022.9 |
| 20260510174650 | 20 | 58 | 1.6 | 14.5 | 0.00 | 0.00 | 0.00 | 30 | 1022.9 |
| 20260510174148 | 18 | 115 | 6.4 | 16.1 | 0.00 | 0.00 | 0.00 | 31 | 1023.1 |
| 20260510173643 | 18 | 156 | 4.8 | 12.9 | 0.00 | 0.00 | 0.00 | 32 | 1023.1 |
| 20260510173139 | 18 | 35 | 4.8 | 12.9 | 0.00 | 0.00 | 0.00 | 32 | 1022.9 |
| 20260510172635 | 19 | 75 | 3.2 | 16.1 | 0.00 | 0.00 | 0.00 | 30 | 1023.0 |
| 20260510172132 | 20 | 124 | 1.6 | 9.7 | 0.00 | 0.00 | 0.00 | 28 | 1022.8 |
| 20260510171628 | 20 | 139 | 6.4 | 11.3 | 0.00 | 0.00 | 0.00 | 28 | 1022.6 |
| 20260510171126 | 19 | 64 | 3.2 | 11.3 | 0.00 | 0.00 | 0.00 | 28 | 1022.6 |
| 20260510170622 | 20 | 139 | 4.8 | 11.3 | 0.00 | 0.00 | 0.00 | 26 | 1022.6 |
| 20260510170119 | 20 | 150 | 3.2 | 9.7 | 0.00 | 0.00 | 0.00 | 26 | 1022.6 |
| 20260510165614 | 21 | 131 | 8.0 | 14.5 | 0.00 | 0.00 | 0.00 | 25 | 1022.5 |
| 20260510165110 | 21 | 102 | 6.4 | 16.1 | 0.00 | 0.00 | 0.00 | 24 | 1022.3 |
| 20260510164608 | 21 | 161 | 3.2 | 16.1 | 0.00 | 0.00 | 0.00 | 24 | 1022.4 |
| 20260510164104 | 21 | 150 | 4.8 | 20.9 | 0.00 | 0.00 | 0.00 | 23 | 1022.4 |
| 20260510163559 | 21 | 118 | 6.4 | 14.5 | 0.00 | 0.00 | 0.00 | 24 | 1022.4 |
| 20260510163056 | 22 | 99 | 3.2 | 17.7 | 0.00 | 0.00 | 0.00 | 23 | 1022.3 |
| 20260510162551 | 21 | 83 | 4.8 | 14.5 | 0.00 | 0.00 | 0.00 | 24 | 1022.3 |
| 20260510162048 | 21 | 128 | 4.8 | 16.1 | 0.00 | 0.00 | 0.00 | 24 | 1022.4 |
| 20260510161543 | 21 | 175 | 3.2 | 24.1 | 0.00 | 0.00 | 0.00 | 26 | 1022.4 |
| 20260510161041 | 21 | 178 | 11.3 | 16.1 | 0.00 | 0.00 | 0.00 | 23 | 1022.1 |
| 20260510160537 | 20 | 175 | 4.8 | 8.0 | 0.00 | 0.00 | 0.00 | 24 | 1022.1 |
| 20260510160037 | 20 | 154 | 4.8 | 14.5 | 0.00 | 0.00 | 0.00 | 25 | 1022.3 |
| 20260510155533 | 21 | 205 | 8.0 | 16.1 | 0.00 | 0.00 | 0.00 | 24 | 1022.1 |
| 20260510155030 | 20 | 151 | 4.8 | 9.7 | 0.00 | 0.00 | 0.00 | 25 | 1021.9 |
| 20260510154525 | 20 | 129 | 4.8 | 12.9 | 0.00 | 0.00 | 0.00 | 26 | 1022.1 |
| 20260510154021 | 20 | 141 | 6.4 | 14.5 | 0.00 | 0.00 | 0.00 | 26 | 1022.0 |
| 20260510153516 | 19 | 109 | 9.7 | 14.5 | 0.00 | 0.00 | 0.00 | 27 | 1022.0 |
| 20260510153013 | 19 | 114 | 3.2 | 11.3 | 0.00 | 0.00 | 0.00 | 25 | 1022.0 |
| 20260510152510 | 19 | 171 | 9.7 | 12.9 | 0.00 | 0.00 | 0.00 | 26 | 1022.1 |
| 20260510152006 | 19 | 167 | 4.8 | 17.7 | 0.00 | 0.00 | 0.00 | 27 | 1022.3 |
| 20260510151503 | 19 | 153 | 6.4 | 14.5 | 0.00 | 0.00 | 0.00 | 27 | 1022.3 |
| 20260510151001 | 19 | 179 | 6.4 | 12.9 | 0.00 | 0.00 | 0.00 | 28 | 1022.0 |
| 20260510150455 | 18 | 38 | 1.6 | 12.9 | 0.00 | 0.00 | 0.00 | 28 | 1022.0 |
| 20260510145952 | 18 | 109 | 4.8 | 12.9 | 0.00 | 0.00 | 0.00 | 28 | 1022.1 |
| 20260510145448 | 18 | 210 | 1.6 | 9.7 | 0.00 | 0.00 | 0.00 | 28 | 1021.9 |
| 20260510144945 | 18 | 156 | 9.7 | 11.3 | 0.00 | 0.00 | 0.00 | 28 | 1022.0 |
| 20260510144442 | 18 | 147 | 8.0 | 12.9 | 0.00 | 0.00 | 0.00 | 28 | 1021.9 |
| 20260510143937 | 18 | 130 | 4.8 | 16.1 | 0.00 | 0.00 | 0.00 | 29 | 1021.5 |
| 20260510143433 | 18 | 146 | 1.6 | 9.7 | 0.00 | 0.00 | 0.00 | 29 | 1021.9 |
| 20260510142931 | 18 | 127 | 4.8 | 12.9 | 0.00 | 0.00 | 0.00 | 29 | 1022.0 |
| 20260510142427 | 17 | 179 | 4.8 | 8.0 | 0.00 | 0.00 | 0.00 | 28 | 1022.0 |
| 20260510141923 | 17 | 161 | 9.7 | 11.3 | 0.00 | 0.00 | 0.00 | 28 | 1021.8 |
| 20260510141420 | 17 | 151 | 8.0 | 9.7 | 0.00 | 0.00 | 0.00 | 28 | 1021.9 |
| 20260510140918 | 17 | 180 | 4.8 | 8.0 | 0.00 | 0.00 | 0.00 | 28 | 1021.8 |
| 20260510140413 | 17 | 139 | 1.6 | 8.0 | 0.00 | 0.00 | 0.00 | 29 | 1021.8 |
| 20260510135907 | 17 | 196 | 3.2 | 3.2 | 0.00 | 0.00 | 0.00 | 29 | 1021.5 |
| 20260510135404 | 16 | 186 | 4.8 | 9.7 | 0.00 | 0.00 | 0.00 | 29 | 1021.7 |
| 20260510134901 | 16 | 160 | 0.0 | 8.0 | 0.00 | 0.00 | 0.00 | 30 | 1021.7 |
| 20260510134357 | 16 | 200 | 1.6 | 3.2 | 0.00 | 0.00 | 0.00 | 29 | 1021.5 |
| 20260510133854 | 16 | 66 | 0.0 | 3.2 | 0.00 | 0.00 | 0.00 | 30 | 1021.9 |
| 20260510133350 | 16 | 158 | 1.6 | 3.2 | 0.00 | 0.00 | 0.00 | 30 | 1021.9 |
| 20260510132845 | 16 | 83 | 0.0 | 1.6 | 0.00 | 0.00 | 0.00 | 30 | 1021.7 |
| 20260510132344 | 15 | 91 | 0.0 | 1.6 | 0.00 | 0.00 | 0.00 | 31 | 1021.7 |
| 20260510131840 | 15 | 44 | 0.0 | 0.0 | 0.00 | 0.00 | 0.00 | 32 | 1021.5 |
| 20260510131338 | 14 | 50 | 1.6 | 1.6 | 0.00 | 0.00 | 0.00 | 34 | 1021.5 |
| 20260510130834 | 13 | 4 | 1.6 | 3.2 | 0.00 | 0.00 | 0.00 | 34 | 1021.2 |
| 20260510130331 | 13 | 357 | 1.6 | 1.6 | 0.00 | 0.00 | 0.00 | 33 | 1021.3 |
| 20260510125828 | 13 | 331 | 1.6 | 3.2 | 0.00 | 0.00 | 0.00 | 34 | 1021.3 |
| 20260510125324 | 13 | 349 | 1.6 | 4.8 | 0.00 | 0.00 | 0.00 | 34 | 1021.2 |
| 20260510124821 | 13 | 17 | 0.0 | 1.6 | 0.00 | 0.00 | 0.00 | 35 | 1021.0 |
| 20260510124318 | 12 | 358 | 1.6 | 3.2 | 0.00 | 0.00 | 0.00 | 35 | 1021.0 |
| 20260510123813 | 13 | 88 | 0.0 | 3.2 | 0.00 | 0.00 | 0.00 | 34 | 1021.0 |
| 20260510123309 | 13 | 87 | 0.0 | 1.6 | 0.00 | 0.00 | 0.00 | 33 | 1020.8 |
| 20260510122806 | 13 | 97 | 0.0 | 3.2 | 0.00 | 0.00 | 0.00 | 33 | 1020.9 |
| 20260510122305 | 13 | 95 | 0.0 | 3.2 | 0.00 | 0.00 | 0.00 | 32 | 1020.8 |
| 20260510121758 | 14 | 118 | 1.6 | 4.8 | 0.00 | 0.00 | 0.00 | 31 | 1020.9 |
| 20260510121256 | 15 | 140 | 1.6 | 4.8 | 0.00 | 0.00 | 0.00 | 30 | 1020.7 |
| 20260510120753 | 14 | 142 | 6.4 | 9.7 | 0.00 | 0.00 | 0.00 | 30 | 1020.7 |
| 20260510120249 | 14 | 128 | 3.2 | 8.0 | 0.00 | 0.00 | 0.00 | 30 | 1020.5 |
| 20260510115745 | 14 | 151 | 1.6 | 1.6 | 0.00 | 0.00 | 0.00 | 30 | 1020.3 |
| 20260510115244 | 14 | 96 | 0.0 | 3.2 | 0.00 | 0.00 | 0.00 | 30 | 1020.2 |
| 20260510114738 | 14 | 139 | 1.6 | 3.2 | 0.00 | 0.00 | 0.00 | 30 | 1020.5 |
| 20260510114236 | 14 | 140 | 1.6 | 1.6 | 0.00 | 0.00 | 0.00 | 30 | 1020.8 |
| 20260510113731 | 15 | 115 | 0.0 | 1.6 | 0.00 | 0.00 | 0.00 | 29 | 1020.3 |
| 20260510113229 | 15 | 99 | 0.0 | 1.6 | 0.00 | 0.00 | 0.00 | 29 | 1020.4 |
| 20260510112725 | 15 | 97 | 0.0 | 1.6 | 0.00 | 0.00 | 0.00 | 28 | 1020.5 |
| 20260510112222 | 15 | 123 | 1.6 | 4.8 | 0.00 | 0.00 | 0.00 | 28 | 1020.4 |
| 20260510111717 | 15 | 225 | 1.6 | 3.2 | 0.00 | 0.00 | 0.00 | 27 | 1020.9 |
| 20260510111214 | 16 | 27 | 0.0 | 3.2 | 0.00 | 0.00 | 0.00 | 27 | 1020.7 |
| 20260510110709 | 16 | 295 | 1.6 | 9.7 | 0.00 | 0.00 | 0.00 | 27 | 1020.9 |
| 20260510110207 | 16 | 257 | 3.2 | 16.1 | 0.00 | 0.00 | 0.00 | 27 | 1021.3 |
| 20260510105707 | 16 | 303 | 8.0 | 17.7 | 0.00 | 0.00 | 0.00 | 27 | 1021.3 |
| 20260510105207 | 16 | 328 | 9.7 | 20.9 | 0.00 | 0.00 | 0.00 | 25 | 1021.4 |
| 20260510104704 | 16 | 289 | 8.0 | 24.1 | 0.00 | 0.00 | 0.00 | 24 | 1020.9 |
| 20260510104201 | 15 | 294 | 3.2 | 8.0 | 0.00 | 0.00 | 0.00 | 24 | 1020.2 |
| 20260510103657 | 15 | 22 | 1.6 | 12.9 | 0.00 | 0.00 | 0.00 | 24 | 1020.3 |
| 20260510103154 | 15 | 12 | 0.0 | 1.6 | 0.00 | 0.00 | 0.00 | 23 | 1020.3 |
| 20260510102654 | 16 | 49 | 0.0 | 1.6 | 0.00 | 0.00 | 0.00 | 23 | 1020.1 |
| 20260510102150 | 16 | 95 | 0.0 | 1.6 | 0.00 | 0.00 | 0.00 | 23 | 1019.7 |
| 20260510101648 | 16 | 60 | 0.0 | 1.6 | 0.00 | 0.00 | 0.00 | 23 | 1019.7 |
| 20260510101146 | 16 | 12 | 0.0 | 1.6 | 0.00 | 0.00 | 0.00 | 23 | 1019.7 |
| 20260510100642 | 16 | 12 | 1.6 | 1.6 | 0.00 | 0.00 | 0.00 | 23 | 1019.6 |
| 20260510100140 | 16 | 10 | 0.0 | 0.0 | 0.00 | 0.00 | 0.00 | 23 | 1019.4 |
| 20260510095635 | 16 | 7 | 0.0 | 3.2 | 0.00 | 0.00 | 0.00 | 23 | 1019.7 |
| 20260510095131 | 16 | 24 | 0.0 | 0.0 | 0.00 | 0.00 | 0.00 | 22 | 1019.6 |
| 20260510094629 | 17 | 20 | 1.6 | 1.6 | 0.00 | 0.00 | 0.00 | 22 | 1019.6 |
| 20260510094125 | 17 | 34 | 0.0 | 3.2 | 0.00 | 0.00 | 0.00 | 21 | 1019.3 |
| 20260510093622 | 17 | 303 | 3.2 | 8.0 | 0.00 | 0.00 | 0.00 | 21 | 1019.2 |
| 20260510093119 | 16 | 3 | 4.8 | 11.3 | 0.00 | 0.00 | 0.00 | 21 | 1019.8 |
| 20260510092615 | 16 | 331 | 4.8 | 8.0 | 0.00 | 0.00 | 0.00 | 22 | 1019.6 |
| 20260510092115 | 16 | 359 | 1.6 | 4.8 | 0.00 | 0.00 | 0.00 | 22 | 1019.3 |
| 20260510091612 | 16 | 49 | 0.0 | 3.2 | 0.00 | 0.00 | 0.00 | 23 | 1019.2 |
| 20260510091108 | 16 | 25 | 0.0 | 3.2 | 0.00 | 0.00 | 0.00 | 22 | 1019.3 |
| 20260510090605 | 15 | 10 | 0.0 | 0.0 | 0.00 | 0.00 | 0.00 | 23 | 1019.4 |
| 20260510090101 | 15 | 12 | 0.0 | 1.6 | 0.00 | 0.00 | 0.00 | 23 | 1019.2 |
| 20260510085556 | 15 | 12 | 0.0 | 1.6 | 0.00 | 0.00 | 0.00 | 23 | 1019.3 |
| 20260510085052 | 15 | 342 | 1.6 | 1.6 | 0.00 | 0.00 | 0.00 | 23 | 1019.3 |
| 20260510084549 | 15 | 16 | 0.0 | 1.6 | 0.00 | 0.00 | 0.00 | 24 | 1019.3 |
| 20260510084045 | 15 | 329 | 1.6 | 3.2 | 0.00 | 0.00 | 0.00 | 24 | 1019.1 |
| 20260510083542 | 15 | 358 | 0.0 | 3.2 | 0.00 | 0.00 | 0.00 | 24 | 1018.9 |
| 20260510083038 | 15 | 275 | 3.2 | 3.2 | 0.00 | 0.00 | 0.00 | 24 | 1018.9 |
| 20260510082535 | 15 | 255 | 1.6 | 3.2 | 0.00 | 0.00 | 0.00 | 23 | 1018.7 |
| 20260510082031 | 15 | 21 | 0.0 | 1.6 | 0.00 | 0.00 | 0.00 | 23 | 1018.6 |
| 20260510081526 | 16 | 27 | 0.0 | 0.0 | 0.00 | 0.00 | 0.00 | 23 | 1018.7 |
| 20260510081022 | 16 | 21 | 0.0 | 1.6 | 0.00 | 0.00 | 0.00 | 22 | 1018.7 |
| 20260510080521 | 16 | 27 | 0.0 | 1.6 | 0.00 | 0.00 | 0.00 | 22 | 1018.7 |
| 20260510080018 | 16 | 19 | 3.2 | 3.2 | 0.00 | 0.00 | 0.00 | 22 | 1018.7 |
| 20260510075515 | 16 | 26 | 0.0 | 3.2 | 0.00 | 0.00 | 0.00 | 22 | 1018.6 |
| 20260510075012 | 16 | 18 | 3.2 | 3.2 | 0.00 | 0.00 | 0.00 | 22 | 1018.3 |
| 20260510074510 | 16 | 27 | 0.0 | 3.2 | 0.00 | 0.00 | 0.00 | 22 | 1018.4 |
| 20260510074005 | 16 | 356 | 1.6 | 3.2 | 0.00 | 0.00 | 0.00 | 22 | 1018.4 |
| 20260510073501 | 16 | 8 | 3.2 | 4.8 | 0.00 | 0.00 | 0.00 | 22 | 1018.3 |
| 20260510072958 | 16 | 21 | 0.0 | 3.2 | 0.00 | 0.00 | 0.00 | 22 | 1018.6 |
| 20260510072455 | 16 | 37 | 0.0 | 4.8 | 0.00 | 0.00 | 0.00 | 22 | 1018.7 |
| 20260510071950 | 16 | 30 | 1.6 | 4.8 | 0.00 | 0.00 | 0.00 | 21 | 1018.4 |
| 20260510071447 | 16 | 19 | 0.0 | 1.6 | 0.00 | 0.00 | 0.00 | 21 | 1018.4 |
| 20260510070945 | 16 | 11 | 1.6 | 1.6 | 0.00 | 0.00 | 0.00 | 21 | 1018.4 |
| 20260510070442 | 16 | 26 | 1.6 | 3.2 | 0.00 | 0.00 | 0.00 | 21 | 1018.6 |
| 20260510065937 | 16 | 23 | 0.0 | 1.6 | 0.00 | 0.00 | 0.00 | 21 | 1018.4 |
| 20260510065435 | 16 | 22 | 0.0 | 1.6 | 0.00 | 0.00 | 0.00 | 21 | 1018.2 |
| 20260510064930 | 16 | 30 | 0.0 | 1.6 | 0.00 | 0.00 | 0.00 | 21 | 1018.2 |
| 20260510064428 | 16 | 33 | 3.2 | 4.8 | 0.00 | 0.00 | 0.00 | 21 | 1018.4 |
| 20260510063925 | 16 | 34 | 0.0 | 1.6 | 0.00 | 0.00 | 0.00 | 21 | 1018.1 |
| 20260510063421 | 17 | 16 | 1.6 | 4.8 | 0.00 | 0.00 | 0.00 | 21 | 1018.1 |
| 20260510062919 | 17 | 4 | 3.2 | 3.2 | 0.00 | 0.00 | 0.00 | 21 | 1018.2 |
| 20260510062414 | 17 | 35 | 0.0 | 9.7 | 0.00 | 0.00 | 0.00 | 20 | 1018.3 |
| 20260510061909 | 16 | 3 | 3.2 | 9.7 | 0.00 | 0.00 | 0.00 | 20 | 1018.1 |
| 20260510061406 | 16 | 23 | 3.2 | 9.7 | 0.00 | 0.00 | 0.00 | 20 | 1017.7 |
| 20260510060902 | 16 | 41 | 1.6 | 11.3 | 0.00 | 0.00 | 0.00 | 20 | 1018.0 |
| 20260510060359 | 17 | 24 | 3.2 | 11.3 | 0.00 | 0.00 | 0.00 | 19 | 1018.0 |
| 20260510055856 | 17 | 17 | 1.6 | 4.8 | 0.00 | 0.00 | 0.00 | 19 | 1018.0 |
| 20260510055355 | 17 | 40 | 0.0 | 11.3 | 0.00 | 0.00 | 0.00 | 18 | 1017.7 |
| 20260510054849 | 17 | 357 | 1.6 | 9.7 | 0.00 | 0.00 | 0.00 | 18 | 1017.7 |
| 20260510054344 | 17 | 2 | 3.2 | 4.8 | 0.00 | 0.00 | 0.00 | 18 | 1017.8 |
| 20260510053839 | 17 | 25 | 0.0 | 3.2 | 0.00 | 0.00 | 0.00 | 18 | 1017.7 |
| 20260510053335 | 17 | 8 | 1.6 | 3.2 | 0.00 | 0.00 | 0.00 | 18 | 1017.7 |
| 20260510052832 | 17 | 12 | 1.6 | 3.2 | 0.00 | 0.00 | 0.00 | 17 | 1017.7 |
| 20260510052327 | 17 | 26 | 0.0 | 1.6 | 0.00 | 0.00 | 0.00 | 17 | 1017.7 |
| 20260510051824 | 17 | 38 | 0.0 | 3.2 | 0.00 | 0.00 | 0.00 | 17 | 1017.7 |
| 20260510051321 | 17 | 12 | 1.6 | 3.2 | 0.00 | 0.00 | 0.00 | 17 | 1017.7 |
| 20260510050818 | 17 | 31 | 0.0 | 4.8 | 0.00 | 0.00 | 0.00 | 16 | 1017.7 |
| 20260510050314 | 18 | 30 | 1.6 | 4.8 | 0.00 | 0.00 | 0.00 | 16 | 1017.5 |
| 20260510045811 | 18 | 28 | 3.2 | 4.8 | 0.00 | 0.00 | 0.00 | 16 | 1017.3 |
| 20260510045308 | 18 | 25 | 3.2 | 4.8 | 0.00 | 0.00 | 0.00 | 16 | 1017.5 |
| 20260510044805 | 18 | 48 | 1.6 | 4.8 | 0.00 | 0.00 | 0.00 | 16 | 1017.7 |
| 20260510044301 | 18 | 35 | 1.6 | 3.2 | 0.00 | 0.00 | 0.00 | 16 | 1017.6 |
| 20260510043757 | 18 | 37 | 1.6 | 8.0 | 0.00 | 0.00 | 0.00 | 16 | 1017.5 |
| 20260510043249 | 18 | 18 | 1.6 | 9.7 | 0.00 | 0.00 | 0.00 | 15 | 1017.7 |
| 20260510042746 | 18 | 39 | 0.0 | 8.0 | 0.00 | 0.00 | 0.00 | 15 | 1017.2 |
| 20260510042241 | 19 | 36 | 0.0 | 4.8 | 0.00 | 0.00 | 0.00 | 15 | 1017.5 |
| 20260510041739 | 19 | 25 | 3.2 | 4.8 | 0.00 | 0.00 | 0.00 | 15 | 1017.5 |
| 20260510041236 | 18 | 10 | 4.8 | 8.0 | 0.00 | 0.00 | 0.00 | 15 | 1017.6 |
| 20260510040733 | 18 | 348 | 4.8 | 9.7 | 0.00 | 0.00 | 0.00 | 15 | 1017.6 |
| 20260510040230 | 18 | 40 | 0.0 | 3.2 | 0.00 | 0.00 | 0.00 | 17 | 1017.5 |
| 20260510035725 | 18 | 28 | 1.6 | 3.2 | 0.00 | 0.00 | 0.00 | 17 | 1017.5 |
| 20260510035221 | 18 | 304 | 4.8 | 4.8 | 0.00 | 0.00 | 0.00 | 17 | 1017.2 |
| 20260510034717 | 18 | 316 | 1.6 | 4.8 | 0.00 | 0.00 | 0.00 | 17 | 1017.3 |
| 20260510034216 | 18 | 3 | 4.8 | 8.0 | 0.00 | 0.00 | 0.00 | 17 | 1017.2 |
| 20260510033711 | 19 | 17 | 0.0 | 1.6 | 0.00 | 0.00 | 0.00 | 17 | 1017.6 |
| 20260510033209 | 20 | 24 | 0.0 | 1.6 | 0.00 | 0.00 | 0.00 | 16 | 1017.1 |
| 20260510032705 | 20 | 39 | 0.0 | 0.0 | 0.00 | 0.00 | 0.00 | 16 | 1017.2 |
| 20260510032201 | 20 | 28 | 1.6 | 4.8 | 0.00 | 0.00 | 0.00 | 16 | 1017.3 |
| 20260510031655 | 20 | 17 | 4.8 | 4.8 | 0.00 | 0.00 | 0.00 | 16 | 1017.5 |
| 20260510031152 | 20 | 52 | 0.0 | 1.6 | 0.00 | 0.00 | 0.00 | 16 | 1017.1 |
| 20260510030646 | 20 | 312 | 3.2 | 4.8 | 0.00 | 0.00 | 0.00 | 16 | 1017.5 |
| 20260510030144 | 20 | 18 | 0.0 | 3.2 | 0.00 | 0.00 | 0.00 | 16 | 1017.1 |
| 20260510025641 | 20 | 19 | 0.0 | 1.6 | 0.00 | 0.00 | 0.00 | 16 | 1017.0 |
| 20260510025139 | 20 | 23 | 0.0 | 1.6 | 0.00 | 0.00 | 0.00 | 16 | 1017.1 |
| 20260510024635 | 20 | 6 | 1.6 | 8.0 | 0.00 | 0.00 | 0.00 | 16 | 1016.7 |
| 20260510024132 | 20 | 25 | 4.8 | 8.0 | 0.00 | 0.00 | 0.00 | 16 | 1017.0 |
| 20260510023628 | 21 | 305 | 4.8 | 11.3 | 0.00 | 0.00 | 0.00 | 16 | 1016.8 |
| 20260510023126 | 21 | 45 | 3.2 | 16.1 | 0.00 | 0.00 | 0.00 | 16 | 1016.8 |
| 20260510022625 | 21 | 272 | 4.8 | 11.3 | 0.00 | 0.00 | 0.00 | 16 | 1016.5 |
| 20260510022120 | 20 | 353 | 3.2 | 12.9 | 0.00 | 0.00 | 0.00 | 16 | 1016.6 |
| 20260510021616 | 20 | 6 | 1.6 | 8.0 | 0.00 | 0.00 | 0.00 | 17 | 1016.8 |
| 20260510021114 | 20 | 35 | 0.0 | 0.0 | 0.00 | 0.00 | 0.00 | 17 | 1016.6 |
| 20260510020608 | 21 | 41 | 0.0 | 0.0 | 0.00 | 0.00 | 0.00 | 17 | 1016.5 |
| 20260510020103 | 21 | 41 | 0.0 | 0.0 | 0.00 | 0.00 | 0.00 | 16 | 1016.2 |
| 20260510015600 | 21 | 14 | 3.2 | 14.5 | 0.00 | 0.00 | 0.00 | 16 | 1016.0 |
| 20260510015056 | 21 | 18 | 4.8 | 9.7 | 0.00 | 0.00 | 0.00 | 15 | 1016.4 |
| 20260510014552 | 21 | 0 | 3.2 | 3.2 | 0.00 | 0.00 | 0.00 | 15 | 1016.5 |
| 20260510014050 | 21 | 19 | 1.6 | 9.7 | 0.00 | 0.00 | 0.00 | 15 | 1016.1 |
| 20260510013549 | 21 | 0 | 3.2 | 4.8 | 0.00 | 0.00 | 0.00 | 14 | 1016.2 |
| 20260510013046 | 21 | 27 | 1.6 | 4.8 | 0.00 | 0.00 | 0.00 | 14 | 1016.1 |
| 20260510012539 | 21 | 344 | 3.2 | 8.0 | 0.00 | 0.00 | 0.00 | 14 | 1016.1 |
| 20260510012037 | 22 | 70 | 1.6 | 9.7 | 0.00 | 0.00 | 0.00 | 14 | 1015.9 |
| 20260510011536 | 22 | 343 | 6.4 | 22.5 | 0.00 | 0.00 | 0.00 | 14 | 1016.1 |
| 20260510011032 | 22 | 0 | 1.6 | 12.9 | 0.00 | 0.00 | 0.00 | 13 | 1015.6 |
| 20260510010529 | 22 | 292 | 3.2 | 11.3 | 0.00 | 0.00 | 0.00 | 13 | 1015.7 |
| 20260510010026 | 22 | 313 | 1.6 | 1.6 | 0.00 | 0.00 | 0.00 | 13 | 1016.0 |
| 20260510005521 | 22 | 29 | 1.6 | 4.8 | 0.00 | 0.00 | 0.00 | 13 | 1015.5 |
| 20260510005020 | 22 | 207 | 6.4 | 12.9 | 0.00 | 0.00 | 0.00 | 13 | 1015.6 |
| 20260510004517 | 23 | 275 | 3.2 | 4.8 | 0.00 | 0.00 | 0.00 | 13 | 1015.5 |
| 20260510004015 | 23 | 252 | 6.4 | 22.5 | 0.00 | 0.00 | 0.00 | 12 | 1015.6 |
| 20260510003511 | 23 | 163 | 1.6 | 11.3 | 0.00 | 0.00 | 0.00 | 13 | 1015.5 |
| 20260510003007 | 23 | 192 | 3.2 | 8.0 | 0.00 | 0.00 | 0.00 | 12 | 1015.7 |
| 20260510002503 | 23 | 312 | 4.8 | 22.5 | 0.00 | 0.00 | 0.00 | 12 | 1015.5 |
| 20260510001959 | 23 | 22 | 0.0 | 8.0 | 0.00 | 0.00 | 0.00 | 11 | 1015.5 |
| 20260510001457 | 23 | 19 | 4.8 | 4.8 | 0.00 | 0.00 | 0.00 | 11 | 1015.6 |
| 20260510000955 | 23 | 39 | 0.0 | 9.7 | 0.00 | 0.00 | 0.00 | 12 | 1015.5 |
| 20260510000450 | 23 | 304 | 6.4 | 9.7 | 0.00 | 0.00 | 0.00 | 11 | 1015.4 |
| 20260509235947 | 23 | 17 | 3.2 | 12.9 | 0.00 | 0.00 | 0.00 | 11 | 1015.5 |
| 20260509235444 | 23 | 26 | 0.0 | 8.0 | 0.00 | 0.00 | 0.00 | 11 | 1015.5 |
| 20260509234940 | 23 | 352 | 3.2 | 11.3 | 0.00 | 0.00 | 0.00 | 11 | 1015.6 |
| 20260509234437 | 25 | 17 | 4.8 | 12.9 | 0.00 | 0.00 | 0.00 | 10 | 1016.0 |
| 20260509233935 | 26 | 29 | 9.7 | 14.5 | 0.00 | 0.00 | 0.00 | 10 | 1015.7 |
| 20260509233432 | 26 | 140 | 8.0 | 14.5 | 0.00 | 0.00 | 0.00 | 10 | 1015.6 |
| 20260509232928 | 25 | 12 | 4.8 | 12.9 | 0.00 | 0.00 | 0.00 | 10 | 1015.4 |
| 20260509232426 | 25 | 292 | 4.8 | 14.5 | 0.00 | 0.00 | 0.00 | 10 | 1015.7 |
| 20260509231921 | 25 | 18 | 1.6 | 8.0 | 0.00 | 0.00 | 0.00 | 10 | 1015.6 |
| 20260509231418 | 25 | 351 | 8.0 | 14.5 | 0.00 | 0.00 | 0.00 | 10 | 1016.1 |